| time (UTC) | temp F | wind direction | speed MPH | gust MPH | rain 1hr in | rain 24hr in | rain mn in | humidity % | barometer mb |
| 20260906125829 | 57 | 281 | 0.0 | 4.0 | 0.00 | 0.00 | 0.00 | 83 | 1022.7 |
| 20260906125331 | 57 | 257 | 0.0 | 3.0 | 0.00 | 0.00 | 0.00 | 82 | 1022.7 |
| 20260906124825 | 57 | 264 | 0.0 | 3.0 | 0.00 | 0.00 | 0.00 | 82 | 1022.8 |
| 20260906124324 | 57 | 257 | 0.0 | 3.0 | 0.00 | 0.00 | 0.00 | 82 | 1022.8 |
| 20260906123815 | 57 | 253 | 1.0 | 4.0 | 0.00 | 0.00 | 0.00 | 82 | 1022.7 |
| 20260906122641 | 57 | 250 | 1.0 | 4.0 | 0.00 | 0.00 | 0.00 | 82 | 1022.7 |
| 20260906122148 | 57 | 279 | 1.0 | 4.0 | 0.00 | 0.00 | 0.00 | 82 | 1022.8 |
| 20260906121022 | 56 | 256 | 0.0 | 4.0 | 0.00 | 0.00 | 0.00 | 83 | 1022.9 |
| 20260906120529 | 56 | 288 | 0.0 | 2.0 | 0.00 | 0.00 | 0.00 | 84 | 1022.8 |
| 20260906120013 | 56 | 297 | 0.0 | 1.0 | 0.00 | 0.00 | 0.00 | 84 | 1022.8 |
| 20260906115512 | 56 | 281 | 0.0 | 1.0 | 0.00 | 0.00 | 0.00 | 84 | 1022.7 |
| 20260906115013 | 57 | 271 | 0.0 | 3.0 | 0.00 | 0.00 | 0.00 | 84 | 1022.7 |
| 20260906114516 | 57 | 266 | 0.0 | 3.0 | 0.00 | 0.00 | 0.00 | 84 | 1022.5 |
| 20260906113957 | 57 | 281 | 0.0 | 3.0 | 0.00 | 0.00 | 0.00 | 84 | 1022.6 |
| 20260906113448 | 57 | 285 | 0.0 | 3.0 | 0.00 | 0.00 | 0.00 | 84 | 1022.6 |
| 20260906112953 | 57 | 259 | 0.0 | 2.0 | 0.00 | 0.00 | 0.00 | 83 | 1022.7 |
| 20260906112438 | 57 | 269 | 1.0 | 4.0 | 0.00 | 0.00 | 0.00 | 83 | 1022.7 |
| 20260906110712 | 57 | 292 | 2.0 | 6.0 | 0.00 | 0.00 | 0.00 | 84 | 1022.8 |
| 20260906110205 | 57 | 277 | 2.0 | 6.0 | 0.00 | 0.00 | 0.00 | 84 | 1022.9 |
| 20260906105645 | 57 | 227 | 1.0 | 5.0 | 0.00 | 0.00 | 0.00 | 84 | 1022.8 |
| 20260906105147 | 57 | 297 | 1.0 | 5.0 | 0.00 | 0.00 | 0.00 | 84 | 1022.9 |
| 20260906104645 | 57 | 268 | 0.0 | 3.0 | 0.00 | 0.00 | 0.00 | 85 | 1022.7 |
| 20260906104132 | 57 | 276 | 0.0 | 2.0 | 0.00 | 0.00 | 0.00 | 85 | 1022.7 |
| 20260906103637 | 57 | 270 | 0.0 | 1.0 | 0.00 | 0.00 | 0.00 | 85 | 1022.6 |
| 20260906103119 | 57 | 269 | 0.0 | 0.0 | 0.00 | 0.00 | 0.00 | 85 | 1022.5 |
| 20260906102608 | 57 | 269 | 0.0 | 1.0 | 0.00 | 0.00 | 0.00 | 85 | 1022.5 |
| 20260906102108 | 57 | 269 | 0.0 | 0.0 | 0.00 | 0.00 | 0.00 | 85 | 1022.4 |
| 20260906101603 | 57 | 269 | 0.0 | 0.0 | 0.00 | 0.00 | 0.00 | 85 | 1022.5 |
| 20260906101054 | 57 | 269 | 0.0 | 0.0 | 0.00 | 0.00 | 0.00 | 84 | 1022.5 |
| 20260906100602 | 57 | 269 | 0.0 | 0.0 | 0.00 | 0.00 | 0.00 | 84 | 1022.5 |
| 20260906100105 | 57 | 269 | 0.0 | 0.0 | 0.00 | 0.00 | 0.00 | 84 | 1022.4 |
| 20260906095607 | 58 | 269 | 0.0 | 0.0 | 0.00 | 0.00 | 0.00 | 84 | 1022.4 |
| 20260906095101 | 58 | 269 | 0.0 | 0.0 | 0.00 | 0.00 | 0.00 | 84 | 1022.3 |
| 20260906094602 | 58 | 269 | 0.0 | 0.0 | 0.00 | 0.00 | 0.00 | 84 | 1022.3 |
| 20260906092852 | 58 | 263 | 0.0 | 0.0 | 0.00 | 0.01 | 0.00 | 83 | 1022.2 |
| 20260906092343 | 58 | 264 | 0.0 | 0.0 | 0.00 | 0.01 | 0.00 | 83 | 1022.0 |
| 20260906091851 | 58 | 264 | 0.0 | 0.0 | 0.00 | 0.01 | 0.00 | 83 | 1022.0 |
| 20260906091353 | 58 | 263 | 0.0 | 1.0 | 0.00 | 0.01 | 0.00 | 83 | 1022.0 |
| 20260906090836 | 58 | 264 | 0.0 | 1.0 | 0.00 | 0.01 | 0.00 | 82 | 1022.0 |
| 20260906090334 | 58 | 281 | 0.0 | 0.0 | 0.00 | 0.01 | 0.00 | 81 | 1021.7 |
| 20260906085814 | 58 | 281 | 0.0 | 0.0 | 0.00 | 0.01 | 0.00 | 81 | 1021.7 |
| 20260906085253 | 59 | 276 | 0.0 | 0.0 | 0.00 | 0.01 | 0.00 | 81 | 1021.7 |
| 20260906084753 | 59 | 275 | 0.0 | 0.0 | 0.00 | 0.01 | 0.00 | 81 | 1021.7 |
| 20260906084244 | 59 | 300 | 0.0 | 0.0 | 0.00 | 0.01 | 0.00 | 81 | 1021.7 |
| 20260906083742 | 59 | 343 | 0.0 | 0.0 | 0.00 | 0.01 | 0.00 | 80 | 1021.6 |
| 20260906083243 | 59 | 185 | 0.0 | 0.0 | 0.00 | 0.01 | 0.00 | 80 | 1021.6 |
| 20260906082738 | 59 | 185 | 0.0 | 0.0 | 0.00 | 0.01 | 0.00 | 80 | 1021.6 |
| 20260906081635 | 59 | 215 | 0.0 | 0.0 | 0.00 | 0.01 | 0.00 | 79 | 1021.5 |
| 20260906081130 | 59 | 276 | 0.0 | 0.0 | 0.00 | 0.01 | 0.00 | 79 | 1021.5 |
| 20260906080629 | 59 | 276 | 0.0 | 0.0 | 0.00 | 0.01 | 0.00 | 78 | 1021.5 |
| 20260906080112 | 59 | 276 | 0.0 | 0.0 | 0.00 | 0.01 | 0.00 | 78 | 1021.4 |
| 20260906075555 | 59 | 276 | 0.0 | 0.0 | 0.00 | 0.01 | 0.00 | 78 | 1021.2 |
| 20260906074420 | 59 | 276 | 0.0 | 0.0 | 0.00 | 0.01 | 0.00 | 77 | 1020.9 |
| 20260906073922 | 59 | 276 | 0.0 | 0.0 | 0.00 | 0.01 | 0.00 | 77 | 1020.9 |
| 20260906073406 | 59 | 276 | 0.0 | 0.0 | 0.00 | 0.01 | 0.00 | 77 | 1020.9 |
| 20260906072235 | 59 | 148 | 0.0 | 0.0 | 0.00 | 0.01 | 0.00 | 77 | 1020.9 |
| 20260906071739 | 59 | 174 | 0.0 | 0.0 | 0.00 | 0.01 | 0.00 | 76 | 1020.9 |
| 20260906071245 | 60 | 209 | 0.0 | 0.0 | 0.00 | 0.01 | 0.00 | 76 | 1020.9 |
| 20260906070747 | 60 | 210 | 0.0 | 0.0 | 0.00 | 0.01 | 0.00 | 76 | 1020.7 |
| 20260906070228 | 60 | 210 | 0.0 | 0.0 | 0.00 | 0.01 | 0.00 | 76 | 1020.7 |
| 20260906065713 | 60 | 210 | 0.0 | 0.0 | 0.00 | 0.01 | 0.00 | 76 | 1020.8 |
| 20260906065202 | 60 | 210 | 0.0 | 0.0 | 0.00 | 0.01 | 0.00 | 76 | 1020.8 |
| 20260906064710 | 60 | 136 | 0.0 | 0.0 | 0.00 | 0.15 | 0.00 | 75 | 1020.7 |
| 20260906064209 | 60 | 136 | 0.0 | 0.0 | 0.00 | 0.15 | 0.00 | 75 | 1020.7 |
| 20260906063051 | 60 | 135 | 0.0 | 0.0 | 0.00 | 0.18 | 0.00 | 76 | 1020.6 |
| 20260906062544 | 60 | 135 | 0.0 | 0.0 | 0.00 | 0.18 | 0.00 | 75 | 1020.6 |
| 20260906061429 | 60 | 135 | 0.0 | 0.0 | 0.00 | 0.18 | 0.00 | 76 | 1020.7 |
| 20260906060932 | 60 | 206 | 0.0 | 0.0 | 0.00 | 0.18 | 0.00 | 77 | 1020.6 |
| 20260906060433 | 60 | 141 | 0.0 | 1.0 | 0.00 | 0.18 | 0.00 | 77 | 1020.6 |
| 20260906055930 | 60 | 164 | 0.0 | 1.0 | 0.00 | 0.18 | 0.00 | 77 | 1020.7 |
| 20260906055411 | 60 | 258 | 0.0 | 0.0 | 0.00 | 0.18 | 0.00 | 78 | 1020.7 |
| 20260906054907 | 60 | 258 | 0.0 | 0.0 | 0.00 | 0.18 | 0.00 | 78 | 1020.7 |
| 20260906054350 | 60 | 134 | 0.0 | 0.0 | 0.00 | 0.18 | 0.00 | 78 | 1020.5 |
| 20260906053834 | 60 | 134 | 0.0 | 0.0 | 0.00 | 0.18 | 0.00 | 78 | 1020.5 |
| 20260906053317 | 60 | 134 | 0.0 | 1.0 | 0.00 | 0.18 | 0.00 | 78 | 1020.5 |
| 20260906052826 | 60 | 148 | 0.0 | 1.0 | 0.00 | 0.18 | 0.00 | 79 | 1020.5 |
| 20260906051714 | 60 | 137 | 0.0 | 2.0 | 0.00 | 0.18 | 0.00 | 77 | 1020.5 |
| 20260906051156 | 61 | 160 | 0.0 | 2.0 | 0.00 | 0.18 | 0.00 | 77 | 1020.5 |
| 20260906050648 | 61 | 204 | 0.0 | 2.0 | 0.00 | 0.18 | 0.00 | 76 | 1020.5 |
| 20260906050138 | 62 | 277 | 0.0 | 2.0 | 0.00 | 0.18 | 0.00 | 74 | 1020.4 |
| 20260906045622 | 63 | 141 | 0.0 | 1.0 | 0.00 | 0.18 | 0.00 | 74 | 1020.3 |
| 20260906045109 | 63 | 138 | 0.0 | 1.0 | 0.00 | 0.18 | 0.00 | 74 | 1020.3 |
| 20260906044557 | 63 | 84 | 0.0 | 1.0 | 0.00 | 0.18 | 0.00 | 75 | 1020.2 |
| 20260906043425 | 63 | 262 | 0.0 | 2.0 | 0.00 | 0.18 | 0.00 | 73 | 1020.3 |
| 20260906042908 | 64 | 269 | 0.0 | 2.0 | 0.00 | 0.18 | 0.00 | 73 | 1020.3 |
| 20260906042412 | 64 | 264 | 0.0 | 1.0 | 0.00 | 0.18 | 0.00 | 72 | 1020.3 |
| 20260906041920 | 64 | 82 | 0.0 | 0.0 | 0.00 | 0.18 | 0.00 | 72 | 1020.3 |
| 20260906041419 | 65 | 181 | 0.0 | 1.0 | 0.00 | 0.18 | 0.00 | 73 | 1020.2 |
| 20260906040908 | 65 | 164 | 0.0 | 2.0 | 0.00 | 0.18 | 0.00 | 72 | 1020.2 |
| 20260906040415 | 65 | 144 | 0.0 | 2.0 | 0.00 | 0.18 | 0.00 | 73 | 1020.1 |
| 20260906035900 | 63 | 279 | 0.0 | 0.0 | 0.00 | 0.18 | 0.00 | 75 | 1020.0 |
| 20260906034748 | 63 | 134 | 0.0 | 0.0 | 0.00 | 0.18 | 0.00 | 76 | 1020.0 |
| 20260906034232 | 63 | 270 | 0.0 | 3.0 | 0.00 | 0.18 | 0.00 | 76 | 1020.1 |
| 20260906033723 | 63 | 264 | 0.0 | 3.0 | 0.00 | 0.18 | 0.00 | 75 | 1020.2 |
| 20260906033231 | 63 | 276 | 0.0 | 3.0 | 0.00 | 0.18 | 0.00 | 75 | 1020.2 |
| 20260906032728 | 63 | 279 | 0.0 | 2.0 | 0.00 | 0.18 | 0.00 | 75 | 1020.3 |
| 20260906032221 | 63 | 260 | 0.0 | 3.0 | 0.00 | 0.18 | 0.00 | 75 | 1020.3 |
| 20260906031724 | 63 | 273 | 0.0 | 3.0 | 0.00 | 0.18 | 0.00 | 75 | 1020.2 |
| 20260906031207 | 63 | 261 | 0.0 | 3.0 | 0.00 | 0.18 | 0.00 | 75 | 1020.3 |
| 20260906030658 | 62 | 264 | 0.0 | 3.0 | 0.00 | 0.18 | 0.00 | 75 | 1020.3 |
| 20260906025532 | 62 | 349 | 0.0 | 3.0 | 0.00 | 0.18 | 0.00 | 76 | 1020.4 |
| 20260906024354 | 62 | 284 | 0.0 | 4.0 | 0.00 | 0.18 | 0.00 | 75 | 1020.4 |
| 20260906022629 | 62 | 298 | 0.0 | 4.0 | 0.00 | 0.18 | 0.00 | 77 | 1020.6 |
| 20260906022117 | 62 | 217 | 0.0 | 4.0 | 0.00 | 0.18 | 0.00 | 77 | 1020.6 |
| 20260906020328 | 61 | 268 | 0.0 | 3.0 | 0.00 | 0.22 | 0.00 | 78 | 1020.8 |
| 20260906015833 | 61 | 339 | 0.0 | 2.0 | 0.00 | 0.22 | 0.00 | 79 | 1020.9 |
| 20260906015339 | 61 | 339 | 0.0 | 2.0 | 0.00 | 0.22 | 0.00 | 79 | 1020.9 |
| 20260906014819 | 60 | 294 | 1.0 | 4.0 | 0.00 | 0.22 | 0.00 | 79 | 1020.9 |
| 20260906014316 | 60 | 284 | 1.0 | 4.0 | 0.00 | 0.22 | 0.00 | 80 | 1020.9 |
| 20260906013823 | 60 | 312 | 1.0 | 5.0 | 0.00 | 0.22 | 0.00 | 80 | 1020.9 |
| 20260906013333 | 60 | 315 | 0.0 | 5.0 | 0.00 | 0.22 | 0.00 | 80 | 1020.9 |
| 20260906012829 | 60 | 255 | 1.0 | 5.0 | 0.00 | 0.22 | 0.00 | 81 | 1021.0 |
| 20260906012338 | 60 | 255 | 1.0 | 5.0 | 0.00 | 0.22 | 0.00 | 81 | 1021.0 |
| 20260906011818 | 60 | 307 | 1.0 | 4.0 | 0.00 | 0.22 | 0.00 | 82 | 1020.9 |
| 20260906011318 | 59 | 277 | 1.0 | 4.0 | 0.00 | 0.22 | 0.00 | 82 | 1020.9 |
| 20260906010213 | 58 | 257 | 1.0 | 5.0 | 0.00 | 0.22 | 0.00 | 84 | 1020.8 |
| 20260906005648 | 58 | 288 | 1.0 | 5.0 | 0.00 | 0.22 | 0.00 | 84 | 1020.8 |
| 20260906005153 | 58 | 282 | 1.0 | 5.0 | 0.00 | 0.22 | 0.00 | 84 | 1020.8 |
| 20260906004655 | 58 | 269 | 1.0 | 8.0 | 0.00 | 0.22 | 0.00 | 85 | 1020.8 |
| 20260906004149 | 58 | 256 | 2.0 | 8.0 | 0.00 | 0.22 | 0.00 | 85 | 1020.7 |
| 20260906003659 | 57 | 275 | 2.0 | 8.0 | 0.00 | 0.22 | 0.00 | 86 | 1020.7 |
| 20260906003151 | 57 | 260 | 2.0 | 8.0 | 0.00 | 0.22 | 0.00 | 85 | 1020.6 |
| 20260906002655 | 57 | 359 | 1.0 | 7.0 | 0.00 | 0.22 | 0.00 | 86 | 1020.6 |
| 20260906002200 | 57 | 258 | 2.0 | 8.0 | 0.00 | 0.22 | 0.00 | 86 | 1020.7 |
| 20260906001703 | 57 | 279 | 2.0 | 8.0 | 0.00 | 0.22 | 0.00 | 86 | 1020.6 |
| 20260906001202 | 56 | 265 | 2.0 | 8.0 | 0.00 | 0.22 | 0.00 | 86 | 1020.4 |
| 20260906000656 | 56 | 293 | 2.0 | 8.0 | 0.00 | 0.22 | 0.00 | 86 | 1020.3 |
| 20260906000136 | 56 | 276 | 2.0 | 8.0 | 0.00 | 0.22 | 0.00 | 86 | 1020.2 |
| 20260905234941 | 56 | 299 | 2.0 | 8.0 | 0.00 | 0.22 | 0.00 | 87 | 1020.3 |
| 20260905234437 | 56 | 262 | 2.0 | 6.0 | 0.00 | 0.22 | 0.00 | 87 | 1020.2 |
| 20260905233938 | 56 | 285 | 3.0 | 6.0 | 0.00 | 0.22 | 0.00 | 87 | 1020.2 |
| 20260905233421 | 56 | 259 | 3.0 | 8.0 | 0.00 | 0.22 | 0.00 | 87 | 1020.1 |
| 20260905232909 | 56 | 258 | 2.0 | 8.0 | 0.00 | 0.22 | 0.00 | 87 | 1020.1 |
| 20260905232414 | 56 | 189 | 2.0 | 8.0 | 0.00 | 0.22 | 0.00 | 87 | 1020.1 |
| 20260905231913 | 55 | 257 | 2.0 | 8.0 | 0.00 | 0.22 | 0.00 | 87 | 1020.0 |
| 20260905230744 | 55 | 267 | 3.0 | 7.0 | 0.00 | 0.22 | 0.00 | 87 | 1019.8 |
| 20260905225027 | 55 | 237 | 3.0 | 8.0 | 0.00 | 0.22 | 0.00 | 87 | 1019.5 |
| 20260905224512 | 55 | 288 | 3.0 | 9.0 | 0.00 | 0.22 | 0.00 | 87 | 1019.5 |
| 20260905224015 | 55 | 262 | 3.0 | 9.0 | 0.00 | 0.22 | 0.00 | 87 | 1019.4 |
| 20260905222852 | 55 | 313 | 4.0 | 11.0 | 0.00 | 0.22 | 0.00 | 88 | 1019.1 |
| 20260905222359 | 55 | 274 | 4.0 | 11.0 | 0.00 | 0.22 | 0.00 | 88 | 1019.1 |
| 20260905221903 | 55 | 71 | 4.0 | 11.0 | 0.00 | 0.22 | 0.00 | 88 | 1018.8 |
| 20260905221410 | 55 | 288 | 3.0 | 9.0 | 0.00 | 0.22 | 0.00 | 88 | 1018.8 |
| 20260905220858 | 55 | 282 | 3.0 | 9.0 | 0.00 | 0.22 | 0.00 | 88 | 1018.8 |
| 20260905220405 | 54 | 275 | 3.0 | 9.0 | 0.00 | 0.22 | 0.00 | 88 | 1018.9 |
| 20260905215859 | 54 | 275 | 3.0 | 9.0 | 0.00 | 0.22 | 0.00 | 88 | 1018.8 |
| 20260905215402 | 54 | 250 | 3.0 | 8.0 | 0.00 | 0.22 | 0.00 | 88 | 1018.8 |
| 20260905214911 | 54 | 324 | 3.0 | 8.0 | 0.00 | 0.22 | 0.00 | 88 | 1018.8 |
| 20260905213759 | 54 | 253 | 3.0 | 8.0 | 0.00 | 0.22 | 0.00 | 88 | 1018.7 |
| 20260905213253 | 54 | 267 | 3.0 | 8.0 | 0.00 | 0.22 | 0.00 | 88 | 1018.6 |
| 20260905212754 | 54 | 272 | 2.0 | 10.0 | 0.00 | 0.22 | 0.00 | 88 | 1018.5 |
| 20260905212240 | 54 | 1 | 2.0 | 10.0 | 0.00 | 0.22 | 0.00 | 88 | 1018.4 |
| 20260905211726 | 54 | 339 | 3.0 | 10.0 | 0.00 | 0.22 | 0.00 | 88 | 1018.3 |
| 20260905211217 | 54 | 277 | 3.0 | 10.0 | 0.00 | 0.22 | 0.00 | 88 | 1018.3 |
| 20260905210722 | 54 | 268 | 3.0 | 9.0 | 0.00 | 0.23 | 0.00 | 88 | 1018.2 |
| 20260905210223 | 54 | 283 | 3.0 | 9.0 | 0.00 | 0.24 | 0.00 | 88 | 1018.1 |
| 20260905205717 | 54 | 253 | 5.0 | 9.0 | 0.00 | 0.25 | 0.00 | 88 | 1018.0 |
| 20260905205223 | 54 | 262 | 4.0 | 9.0 | 0.00 | 0.25 | 0.00 | 88 | 1018.0 |
| 20260905204725 | 54 | 315 | 3.0 | 9.0 | 0.00 | 0.25 | 0.00 | 88 | 1017.8 |
| 20260905204227 | 54 | 260 | 3.0 | 8.0 | 0.00 | 0.25 | 0.00 | 88 | 1017.8 |
| 20260905203727 | 54 | 288 | 3.0 | 8.0 | 0.00 | 0.25 | 0.00 | 88 | 1017.7 |
| 20260905201933 | 54 | 267 | 3.0 | 9.0 | 0.00 | 0.29 | 0.00 | 88 | 1017.3 |
| 20260905201439 | 54 | 282 | 3.0 | 9.0 | 0.00 | 0.29 | 0.00 | 88 | 1017.3 |
| 20260905200931 | 54 | 343 | 3.0 | 9.0 | 0.00 | 0.29 | 0.00 | 88 | 1017.4 |
| 20260905200429 | 54 | 266 | 3.0 | 8.0 | 0.00 | 0.30 | 0.00 | 88 | 1017.3 |
| 20260905195924 | 54 | 276 | 4.0 | 9.0 | 0.00 | 0.32 | 0.00 | 88 | 1017.0 |
| 20260905195424 | 54 | 268 | 4.0 | 9.0 | 0.00 | 0.32 | 0.00 | 88 | 1017.0 |
| 20260905194300 | 54 | 253 | 4.0 | 10.0 | 0.00 | 0.32 | 0.00 | 88 | 1016.9 |
| 20260905193746 | 54 | 251 | 4.0 | 10.0 | 0.00 | 0.32 | 0.00 | 89 | 1016.9 |
| 20260905193240 | 54 | 269 | 4.0 | 10.0 | 0.00 | 0.32 | 0.00 | 88 | 1016.9 |
| 20260905192732 | 54 | 258 | 4.0 | 11.0 | 0.00 | 0.32 | 0.00 | 89 | 1016.9 |
| 20260905192241 | 54 | 253 | 5.0 | 11.0 | 0.00 | 0.32 | 0.00 | 88 | 1016.8 |
| 20260905191747 | 54 | 279 | 5.0 | 13.0 | 0.00 | 0.32 | 0.00 | 88 | 1016.6 |
| 20260905191239 | 54 | 251 | 5.0 | 13.0 | 0.00 | 0.32 | 0.00 | 88 | 1016.7 |
| 20260905184816 | 54 | 54 | 4.0 | 10.0 | 0.00 | 0.32 | 0.00 | 87 | 1016.4 |
| 20260905184315 | 55 | 2 | 4.0 | 11.0 | 0.00 | 0.32 | 0.00 | 87 | 1016.3 |
| 20260905183158 | 55 | 292 | 4.0 | 11.0 | 0.00 | 0.32 | 0.00 | 87 | 1016.2 |
| 20260905182659 | 55 | 270 | 5.0 | 11.0 | 0.00 | 0.33 | 0.00 | 87 | 1016.1 |
| 20260905182203 | 55 | 313 | 5.0 | 10.0 | 0.00 | 0.34 | 0.00 | 87 | 1016.0 |
| 20260905181652 | 55 | 269 | 4.0 | 11.0 | 0.00 | 0.37 | 0.00 | 87 | 1016.0 |
| 20260905181153 | 55 | 296 | 4.0 | 11.0 | 0.00 | 0.40 | 0.00 | 87 | 1015.9 |
| 20260905180036 | 55 | 319 | 5.0 | 11.0 | 0.00 | 0.40 | 0.00 | 87 | 1015.5 |
| 20260905174233 | 55 | 331 | 4.0 | 10.0 | 0.00 | 0.40 | 0.00 | 87 | 1014.9 |
| 20260905172458 | 55 | 312 | 4.0 | 12.0 | 0.00 | 0.40 | 0.00 | 87 | 1014.7 |
| 20260905172001 | 55 | 330 | 4.0 | 12.0 | 0.00 | 0.40 | 0.00 | 87 | 1014.7 |
| 20260905170831 | 55 | 281 | 4.0 | 10.0 | 0.00 | 0.41 | 0.00 | 87 | 1014.5 |
| 20260905170315 | 55 | 251 | 4.0 | 10.0 | 0.00 | 0.42 | 0.00 | 87 | 1014.5 |
| 20260905165815 | 55 | 321 | 5.0 | 10.0 | 0.00 | 0.43 | 0.00 | 87 | 1014.4 |
| 20260905165259 | 55 | 255 | 5.0 | 10.0 | 0.00 | 0.43 | 0.00 | 87 | 1014.4 |
| 20260905164133 | 55 | 295 | 4.0 | 10.0 | 0.00 | 0.43 | 0.00 | 87 | 1014.2 |
| 20260905163003 | 55 | 282 | 4.0 | 10.0 | 0.00 | 0.43 | 0.00 | 87 | 1014.0 |
| 20260905162502 | 55 | 280 | 3.0 | 9.0 | 0.00 | 0.43 | 0.00 | 86 | 1014.0 |
| 20260905161958 | 55 | 349 | 3.0 | 10.0 | 0.00 | 0.44 | 0.00 | 86 | 1013.9 |
| 20260905161447 | 55 | 75 | 3.0 | 10.0 | 0.00 | 0.44 | 0.00 | 87 | 1013.9 |
| 20260905160955 | 55 | 25 | 4.0 | 10.0 | 0.00 | 0.45 | 0.00 | 86 | 1013.9 |
| 20260905160458 | 55 | 276 | 4.0 | 10.0 | 0.00 | 0.45 | 0.00 | 86 | 1014.0 |
| 20260905155938 | 55 | 248 | 4.0 | 9.0 | 0.00 | 0.46 | 0.00 | 86 | 1013.8 |
| 20260905155423 | 55 | 231 | 4.0 | 11.0 | 0.00 | 0.47 | 0.00 | 86 | 1013.6 |
| 20260905154913 | 55 | 279 | 5.0 | 11.0 | 0.00 | 0.48 | 0.00 | 86 | 1013.6 |
| 20260905154353 | 55 | 247 | 4.0 | 11.0 | 0.00 | 0.48 | 0.00 | 86 | 1013.4 |
| 20260905153228 | 55 | 248 | 5.0 | 11.0 | 0.00 | 0.49 | 0.00 | 86 | 1013.3 |
| 20260905152728 | 55 | 288 | 5.0 | 12.0 | 0.00 | 0.49 | 0.00 | 86 | 1013.3 |
| 20260905152227 | 55 | 232 | 5.0 | 12.0 | 0.00 | 0.49 | 0.00 | 86 | 1013.2 |
| 20260905151736 | 55 | 252 | 5.0 | 13.0 | 0.00 | 0.49 | 0.00 | 86 | 1013.2 |
| 20260905151246 | 55 | 272 | 6.0 | 13.0 | 0.00 | 0.49 | 0.00 | 86 | 1013.0 |
| 20260905150750 | 55 | 274 | 6.0 | 13.0 | 0.00 | 0.50 | 0.00 | 85 | 1012.8 |
| 20260905150239 | 55 | 279 | 5.0 | 13.0 | 0.00 | 0.50 | 0.00 | 86 | 1012.6 |
| 20260905145747 | 55 | 296 | 5.0 | 13.0 | 0.00 | 0.51 | 0.00 | 86 | 1012.5 |
| 20260905145256 | 55 | 296 | 5.0 | 13.0 | 0.00 | 0.51 | 0.00 | 86 | 1012.5 |
| 20260905144803 | 55 | 273 | 4.0 | 13.0 | 0.00 | 0.51 | 0.00 | 86 | 1012.3 |
| 20260905143635 | 55 | 170 | 5.0 | 10.0 | 0.00 | 0.51 | 0.00 | 87 | 1012.0 |
| 20260905143119 | 55 | 308 | 5.0 | 10.0 | 0.00 | 0.51 | 0.00 | 87 | 1012.0 |
| 20260905142620 | 55 | 6 | 4.0 | 10.0 | 0.00 | 0.51 | 0.00 | 87 | 1011.9 |
| 20260905142129 | 55 | 329 | 5.0 | 15.0 | 0.00 | 0.51 | 0.00 | 87 | 1011.8 |
| 20260905135738 | 55 | 297 | 7.0 | 18.0 | 0.00 | 0.58 | 0.58 | 86 | 1011.4 |
| 20260905135248 | 55 | 299 | 7.0 | 18.0 | 0.00 | 0.58 | 0.58 | 86 | 1011.4 |
| 20260905134730 | 55 | 297 | 7.0 | 18.0 | 0.00 | 0.58 | 0.58 | 86 | 1011.2 |
| 20260905134217 | 55 | 256 | 7.0 | 13.0 | 0.00 | 0.58 | 0.58 | 86 | 1011.2 |
| 20260905133705 | 55 | 305 | 7.0 | 13.0 | 0.00 | 0.58 | 0.58 | 86 | 1011.1 |
| 20260905133202 | 55 | 260 | 6.0 | 12.0 | 0.00 | 0.58 | 0.58 | 86 | 1011.1 |
| 20260905132031 | 55 | 267 | 7.0 | 16.0 | 0.00 | 0.57 | 0.57 | 85 | 1010.9 |
| 20260905131525 | 55 | 239 | 6.0 | 16.0 | 0.00 | 0.57 | 0.57 | 85 | 1010.8 |
| 20260905130412 | 55 | 227 | 7.0 | 14.0 | 0.00 | 0.57 | 0.57 | 85 | 1010.6 |
| 20260905125856 | 55 | 227 | 7.0 | 14.0 | 0.00 | 0.57 | 0.57 | 85 | 1010.6 |